Regional Weather Roundup
Issued by NWS

Home | Current Version | Previous Version | Text Only | Print | Product List | Glossary On
Versions: 1 2 3 4 5 6 7 8 9 10 11 12 13 14 15 16 17 18 19 20 21 22 23 24 25 26 27 28 29 30 31 32 33 34 35 36 37 38 39 40 41 42 43 44 45 46 47 48 49 50
604
ASUS44 KJAN 281010
RWRMS

MISSISSIPPI HOURLY WEATHER ROUNDUP
NATIONAL WEATHER SERVICE JACKSON MS
400 AM CST FRI NOV 28 2014

NOTE: "FAIR: INDICATES FEW OR NO CLOUDS BELOW 12,000 FEET WITH NO
SIGNIFICANT WEATHER AND/OR OBSTRUCTIONS TO VISIBILITY.

MSZ001>002-007>008-010>013-018>021-025>028-034>036-281100-
NORTHWEST MISSISSIPPI

CITY           SKY/WX    TMP DP  RH WIND       PRES   REMARKS
CLARKSDALE     FAIR      32  30  93 E7        30.43F WCI  26
CLEVELAND      FAIR      35  31  87 SE7       30.42F WCI  29
GREENWOOD      CLEAR     33  28  81 E9        30.44S WCI  25
GREENVILLE     CLEAR     30  28  92 CALM      30.43S
GRENADA        FAIR      32  28  86 CALM      30.44F
OLIVE BRANCH   CLEAR     28  28 100 SE5       30.42F WCI  23
OXFORD         FAIR      28  25  86 SE5       30.44F WCI  23
TUNICA         SUNNY     30  28  93 SE3       30.43F
$$

MSZ003>006-009-014>017-022>024-029>033-037>039-281100-
NORTHEAST MISSISSIPPI

CITY           SKY/WX    TMP DP  RH WIND       PRES   REMARKS
COLUMBUS AFB   CLEAR     25  23  91 CALM      30.46S
CORINTH          N/A     25  23  93 CALM      30.44S
GOLDN TRIANGLE CLEAR     27  23  86 NE6       30.43F WCI  20
STARKVILLE       N/A     27  27 100 CALM      30.45S
TUPELO         CLEAR     28  25  88 CALM      30.45F
$$

MSZ040-058-281100-
CENTRAL MISSISSIPPI

CITY           SKY/WX    TMP DP  RH WIND       PRES   REMARKS
JACKSON INTL   CLEAR     29  27  92 CALM      30.42F
JACKSON HAWKNS CLEAR     32  29  88 E3        30.43S
MERIDIAN KEY   CLEAR     29  26  89 CALM      30.44S
MERIDIAN NAS   CLEAR     31  26  82 NE5       30.44F WCI  26
RAYMOND        FAIR      28  25  86 MISG      30.43S
VICKSBURG      CLEAR     26  24  92 CALM      30.44S
$$

MSZ059>079-281100-
SOUTH MISSISSIPPI

CITY           SKY/WX    TMP DP  RH WIND       PRES   REMARKS
BROOKHAVEN     FAIR      30  30 100 CALM      30.43S FOG
HATTIESBURG    CLEAR     31  29  92 CALM      30.44S
MCCOMB         CLEAR     35  29  78 CALM      30.42S
NATCHEZ        CLEAR     36  28  75 E3        30.42S
PINE BELT      CLEAR     30  25  80 CALM      30.43S
$$

MSZ080>082-281100-
COASTAL MISSISSIPPI

CITY           SKY/WX    TMP DP  RH WIND       PRES   REMARKS
BILOXI         CLEAR     37  31  81 NE8       30.42R WCI  30
PASCAGOULA     CLEAR     32  30  92 CALM      30.43R
GULFPORT       CLEAR     37  31  78 CALM      30.42S
$$



USA.gov is the U.S. government's official web portal to all federal, state and local government web resources and services.